Weather History for Hayward, WI

Change the Weather History Date:

Sunday, December 30, 2012

  Actual Average Record
Temperature  
Mean Temperature 12 °F -  
Max Temperature 21 °F 23 °F 46 °F (2004)
Min Temperature 3 °F -2 °F -27 °F (2013)
Degree Days  
Heating Degree Days 53    
Moisture  
Dew Point 6 °F    
Average Humidity 74    
Maximum Humidity 84    
Minimum Humidity 58    
Precipitation  
Precipitation 0.00 in - - ()
Sea Level Pressure  
Sea Level Pressure 30.09 in    
Wind  
Wind Speed 3 mph (South)    
Max Wind Speed 9 mph    
Max Gust Speed -    
Visibility 9 miles    
Events      
Averages and records for this station are not official NWS values.
T = Trace of Precipitation, MM = Missing Value Source: NWS Daily Summary

Daily Weather History Graph

Daily Weather History Graph

Search for Another Location

Airport:

Trip Planner

Search our weather history database for the weather conditions in past years. The results will help you decide how hot, cold, wet, or windy it might be!

Date:

Astronomy

Dec. 30, 2012 Rise Set
Actual Time 7:47 AM CST 4:29 PM CST
Civil Twilight 7:13 AM CST 5:04 PM CST
Nautical Twilight 6:35 AM CST 5:42 PM CST
Astronomical Twilight 5:59 AM CST 6:18 PM CST
Moon 7:10 PM CST 8:49 AM CST
Length of Visible Light 9h 50m
Length of Day
8h 41m
Waning Gibbous, 95% of the Moon is Illuminated
Dec 30
Waning Gibbous
Jan 4
Last Quarter
Jan 11
New
Jan 18
First Quarter
Jan 26
Full

Hourly Weather History & Observations

Time (CST) Temp. Windchill Dew Point Humidity Pressure Visibility Wind Dir Wind Speed Gust Speed Precip Events Conditions
12:53 AM 12.9 °F 5.2 °F 6.1 °F 74% 30.15 in 7.0 mi WSW 4.6 mph - N/A   Overcast
1:53 AM 12.0 °F 4.1 °F 5.0 °F 73% 30.17 in 10.0 mi Variable 4.6 mph - N/A   Overcast
2:29 AM 10.4 °F - 5.0 °F 79% 30.10 in 10.0 mi Calm Calm - N/A   Partly Cloudy
2:53 AM 9.0 °F - 3.9 °F 80% 30.19 in 9.0 mi Calm Calm - N/A   Clear
3:53 AM 7.0 °F - 3.0 °F 84% 30.21 in 7.0 mi Calm Calm - N/A   Clear
4:53 AM 6.1 °F - 1.9 °F 83% 30.22 in 6.0 mi Calm Calm - N/A   Clear
5:53 AM 3.9 °F - -0.9 °F 80% 30.22 in 7.0 mi Calm Calm - N/A   Clear
6:53 AM 3.0 °F - -0.9 °F 84% 30.21 in 7.0 mi Calm Calm - N/A   Clear
7:53 AM 3.9 °F - -0.0 °F 84% 30.20 in 6.0 mi Calm Calm - N/A   Clear
8:53 AM 6.1 °F -2.8 °F 1.0 °F 80% 30.20 in 7.0 mi South 4.6 mph - N/A   Clear
9:53 AM 9.0 °F -0.9 °F 3.0 °F 77% 30.21 in 8.0 mi SSW 5.8 mph - N/A   Clear
10:53 AM 12.0 °F 1.5 °F 5.0 °F 73% 30.20 in 9.0 mi SSW 6.9 mph - N/A   Clear
11:53 AM 15.1 °F 4.2 °F 7.0 °F 70% 30.15 in 10.0 mi South 8.1 mph - N/A   Clear
12:53 PM 19.0 °F 10.0 °F 8.1 °F 62% 30.09 in 10.0 mi SSE 6.9 mph - N/A   Clear
1:53 PM 21.9 °F 11.7 °F 9.0 °F 58% 30.06 in 10.0 mi SSW 9.2 mph - N/A   Clear
2:53 PM 19.9 °F 9.3 °F 8.1 °F 60% 30.04 in 10.0 mi SSE 9.2 mph - N/A   Clear
3:53 PM 19.0 °F 10.0 °F 8.1 °F 62% 30.02 in 10.0 mi South 6.9 mph - N/A   Clear
4:53 PM 17.1 °F 8.7 °F 8.1 °F 68% 29.99 in 10.0 mi South 5.8 mph - N/A   Clear
5:53 PM 16.0 °F 10.4 °F 8.1 °F 71% 29.97 in 10.0 mi Variable 3.5 mph - N/A   Clear
6:53 PM 17.1 °F 11.7 °F 9.0 °F 71% 29.98 in 10.0 mi Variable 3.5 mph - N/A   Scattered Clouds
7:53 PM 17.1 °F 8.7 °F 9.0 °F 71% 29.95 in 10.0 mi SSE 5.8 mph - N/A   Overcast
8:53 PM 18.0 °F - 10.0 °F 71% 29.94 in 10.0 mi Calm Calm - N/A   Scattered Clouds
9:53 PM 19.0 °F 12.3 °F 12.0 °F 74% 29.92 in 10.0 mi SW 4.6 mph - N/A   Clear
10:53 PM 19.0 °F 12.3 °F 12.0 °F 74% 29.92 in 10.0 mi Variable 4.6 mph - N/A   Clear
11:53 PM 14.0 °F - 10.0 °F 84% 29.92 in 7.0 mi Calm Calm - N/A   Clear